(167440) = 2003 XT4

Discovered at Socorro on 2003-12-01 by LINEAR.

Orbit

Orbit type: Main Belt

Note: WebGL enabled browser required.

epoch2024-03-31.0
epoch JD2460400.5
perihelion date2024-01-28.44511
perihelion JD2460337.94511
argument of perihelion (°)262.19988
ascending node (°)108.95661
inclination (°)6.41341
eccentricity0.2569263
perihelion distance (AU)1.9185586
Tisserand w.r.t. Jupiter3.4
ΔV w.r.t. Earth (km/sec)8.9
semimajor axis (AU)2.5819223
mean anomaly (°)14.86108
mean daily motion (°/day)0.23756860
aphelion distance (AU)3.245
period (years)4.15
P-vector [x]0.97523835
P-vector [y]0.21969624
P-vector [z]-0.02537148
Q-vector [x]-0.19429263
Q-vector [y]0.90592094
Q-vector [z]0.37624146
absolute magnitude15.61
phase slope0.15
uncertainty0
referenceMPEC 2024-E50
observations used952
oppositions18
arc length (days)11611
first opposition used1992
last opposition used2023
residual rms (arc-secs)0.65
perturbers coarse indicatorM-v
perturbers precise indicator003Ek
first observation date used1992-01-27.0
last observation date used2023-11-11.0
computer nameMPCLINUX
JD of orbit computation2456847.758097
perihelion JD uncertainty (days)4.1071E-05
argument of perihelion uncertainty (°)4.8923E-05
ascending node uncertainty (°)4.7431E-05
inclination uncertainty (°)4.6351E-06
eccentricity uncertainty 7.3464E-08
perihelion distance uncertainty (AU)2.0007E-07
Minimum Orbit Intersection Distances (in AU)
for orbit epoch: 2460400.5, reference: E2024-E50
Mercury1.56496
Venus1.19457
Earth0.93107
Mars0.53153
Jupiter2.23818
Saturn6.25632
Uranus15.2545
Neptune27.3694

Observations

965 total observations over interval: 1992 01 27.30021 – 2023 11 11.098312
These data are available for download (format description).

Date (UT) J2000 RA J2000 Dec Magn Location Ref
1992 01 27.30021 09 57 32.60 +17 26 54.9 20.7 V 691 – Steward Observatory, Kitt Peak-Spacewatch MPS 139318
1992 01 27.32512 09 57 31.31 +17 27 07.5   691 – Steward Observatory, Kitt Peak-Spacewatch MPS 139318
1992 01 27.35021 09 57 29.99 +17 27 16.5   691 – Steward Observatory, Kitt Peak-Spacewatch MPS 139318
1995 12 27.45399 09 18 27.97 +17 51 38.4 19.2 V 691 – Steward Observatory, Kitt Peak-Spacewatch MPS 139318
1995 12 27.48545 09 18 27.04 +17 51 47.5   691 – Steward Observatory, Kitt Peak-Spacewatch MPS 139318
1995 12 27.50978 09 18 26.30 +17 51 54.5   691 – Steward Observatory, Kitt Peak-Spacewatch MPS 139318
2000 01 04.31484 08 02 00.71 +21 02 04.1 19.6   704 – Lincoln Laboratory ETS, New Mexico MPS 139318
2000 01 04.32939 08 01 59.85 +21 02 10.9 19.0   704 – Lincoln Laboratory ETS, New Mexico MPS 139318
2000 01 04.34409 08 01 59.04 +21 02 15.6 19.5   704 – Lincoln Laboratory ETS, New Mexico MPS 139318
2000 01 04.35865 08 01 58.03 +21 02 21.4 19.3   704 – Lincoln Laboratory ETS, New Mexico MPS 139318
2000 01 11.39461 07 54 40.58 +21 41 04.2 18.3 V 691 – Steward Observatory, Kitt Peak-Spacewatch MPS 139318
2000 01 11.41690 07 54 39.12 +21 41 11.4 18.1 V 691 – Steward Observatory, Kitt Peak-Spacewatch MPS 139318
2000 01 11.43908 07 54 37.67 +21 41 18.2 18.8 V 691 – Steward Observatory, Kitt Peak-Spacewatch MPS 139318
2003 09 28.42481 06 33 58.65 +18 41 58.6   704 – Lincoln Laboratory ETS, New Mexico MPS 291369
2003 10 22.44107 06 58 42.48 +18 25 12.3 18.9 C 704 – Lincoln Laboratory ETS, New Mexico MPS 292482
2003 12 01.33533 07 00 57.02 +19 11 47.7 18.6   704 – Lincoln Laboratory ETS, New Mexico MPS 92911
2003 12 01.36422 07 00 55.91 +19 11 53.1 19.1   704 – Lincoln Laboratory ETS, New Mexico MPS 92911
2003 12 01.37958 07 00 55.26 +19 11 55.7 19.1   704 – Lincoln Laboratory ETS, New Mexico MPS 92911
2003 12 03.38798 06 59 35.69 +19 18 05.0 18.7   704 – Lincoln Laboratory ETS, New Mexico MPS 92911
2003 12 03.38813 06 59 35.64 +19 18 05.1 18.8   704 – Lincoln Laboratory ETS, New Mexico MPS 92911
2003 12 03.40087 06 59 35.06 +19 18 07.4 18.7   704 – Lincoln Laboratory ETS, New Mexico MPS 92911
2003 12 03.40102 06 59 35.02 +19 18 07.3 19.0   704 – Lincoln Laboratory ETS, New Mexico MPS 92911
2003 12 03.41419 06 59 34.48 +19 18 10.5 19.1   704 – Lincoln Laboratory ETS, New Mexico MPS 92911
2003 12 03.41434 06 59 34.53 +19 18 10.8 19.6   704 – Lincoln Laboratory ETS, New Mexico MPS 92911
2003 12 03.42733 06 59 33.90 +19 18 12.7 18.9   704 – Lincoln Laboratory ETS, New Mexico MPS 92911
2003 12 03.42747 06 59 33.89 +19 18 12.2 19.3   704 – Lincoln Laboratory ETS, New Mexico MPS 92911
2003 12 03.44035 06 59 33.35 +19 18 15.1 18.7   704 – Lincoln Laboratory ETS, New Mexico MPS 92911
2003 12 04.32806 06 58 56.00 +19 21 05.0 18.8   704 – Lincoln Laboratory ETS, New Mexico MPS 93470
2003 12 04.34040 06 58 55.37 +19 21 07.7 19.4   704 – Lincoln Laboratory ETS, New Mexico MPS 93470
2003 12 04.35243 06 58 54.89 +19 21 08.9 19.2   704 – Lincoln Laboratory ETS, New Mexico MPS 93470
2003 12 04.36446 06 58 54.37 +19 21 11.3 19.4   704 – Lincoln Laboratory ETS, New Mexico MPS 93470
2003 12 04.37653 06 58 53.85 +19 21 14.1 19.0   704 – Lincoln Laboratory ETS, New Mexico MPS 93470
2003 12 04.38702 06 58 53.31 +19 21 16.1 18.4   704 – Lincoln Laboratory ETS, New Mexico MPS 93470
2003 12 04.39909 06 58 52.72 +19 21 18.7 18.8   704 – Lincoln Laboratory ETS, New Mexico MPS 93470
2003 12 04.41125 06 58 52.21 +19 21 20.9 19.0   704 – Lincoln Laboratory ETS, New Mexico MPS 93470
2003 12 04.42319 06 58 51.65 +19 21 23.8 19.4   704 – Lincoln Laboratory ETS, New Mexico MPS 93470
2003 12 04.43513 06 58 51.12 +19 21 26.0 19.2   704 – Lincoln Laboratory ETS, New Mexico MPS 93470
2003 12 19.28659 06 45 23.60 +20 16 07.0 18.8   704 – Lincoln Laboratory ETS, New Mexico MPS 94841
2003 12 19.29982 06 45 22.75 +20 16 09.8 19.0   704 – Lincoln Laboratory ETS, New Mexico MPS 94841
2003 12 19.31313 06 45 21.84 +20 16 13.3 18.9   704 – Lincoln Laboratory ETS, New Mexico MPS 94841
2003 12 19.32653 06 45 20.99 +20 16 16.6 18.6   704 – Lincoln Laboratory ETS, New Mexico MPS 94841
2003 12 21.33274 06 43 13.00 +20 24 19.9 18.8   704 – Lincoln Laboratory ETS, New Mexico MPS 94842
2003 12 21.34531 06 43 12.14 +20 24 22.8 18.8   704 – Lincoln Laboratory ETS, New Mexico MPS 94842
2003 12 21.35790 06 43 11.35 +20 24 25.9 18.7   704 – Lincoln Laboratory ETS, New Mexico MPS 94842
2003 12 21.37047 06 43 10.48 +20 24 28.8 19.1   704 – Lincoln Laboratory ETS, New Mexico MPS 94842
2003 12 21.38327 06 43 09.63 +20 24 32.3 19.1   704 – Lincoln Laboratory ETS, New Mexico MPS 94842
2003 12 23.26646 06 41 07.53 +20 32 09.8 18.8   704 – Lincoln Laboratory ETS, New Mexico MPS 94842
2003 12 23.27912 06 41 06.67 +20 32 13.2 18.9   704 – Lincoln Laboratory ETS, New Mexico MPS 94842
2003 12 23.29185 06 41 05.82 +20 32 15.8 18.8   704 – Lincoln Laboratory ETS, New Mexico MPS 94842
2003 12 23.30445 06 41 04.97 +20 32 19.5 19.0   704 – Lincoln Laboratory ETS, New Mexico MPS 94842
2003 12 23.31730 06 41 04.04 +20 32 22.4 19.1   704 – Lincoln Laboratory ETS, New Mexico MPS 94842
2004 01 30.21393 06 07 35.79 +22 48 26.4 19.6   704 – Lincoln Laboratory ETS, New Mexico MPS 97826
2004 01 30.22624 06 07 35.42 +22 48 28.7 19.5   704 – Lincoln Laboratory ETS, New Mexico MPS 97826
2004 01 30.23878 06 07 35.08 +22 48 30.9 19.5   704 – Lincoln Laboratory ETS, New Mexico MPS 97826
2004 01 30.25108 06 07 34.72 +22 48 33.0 19.3   704 – Lincoln Laboratory ETS, New Mexico MPS 97826
2004 01 30.26361 06 07 34.40 +22 48 34.8 19.2   704 – Lincoln Laboratory ETS, New Mexico MPS 97826
2006 06 04.36870 16 36 49.93 -15 45 51.5 18.8 V G96 – Mt. Lemmon Survey MPS 173588
2006 06 04.37530 16 36 49.53 -15 45 51.4 18.6 V G96 – Mt. Lemmon Survey MPS 173588
2006 06 04.38190 16 36 49.10 -15 45 51.0 18.6 V G96 – Mt. Lemmon Survey MPS 173588
2006 06 04.38968 16 36 48.67 -15 45 50.9 18.8 V G96 – Mt. Lemmon Survey MPS 173588
2006 06 20.23310 16 21 33.76 -15 45 23.3 19.2 V 703 – Catalina Sky Survey MPS 173903
2006 06 20.23958 16 21 33.48 -15 45 24.5 19.9 V 703 – Catalina Sky Survey MPS 173903
2006 06 20.24601 16 21 33.08 -15 45 25.2 20.0 V 703 – Catalina Sky Survey MPS 173903
2006 06 20.25244 16 21 32.61 -15 45 23.6 19.8 V 703 – Catalina Sky Survey MPS 173903
2007 09 15.36226 04 57 58.43 +15 23 48.8 19.5   704 – Lincoln Laboratory ETS, New Mexico MPS 216183
2007 09 15.38566 04 58 00.24 +15 23 48.6 19.4   704 – Lincoln Laboratory ETS, New Mexico MPS 216183
2007 09 15.39734 04 58 01.11 +15 23 49.2 19.4   704 – Lincoln Laboratory ETS, New Mexico MPS 216183
2007 09 15.40904 04 58 02.03 +15 23 50.3 19.6   704 – Lincoln Laboratory ETS, New Mexico MPS 216183
2007 09 24.40771 05 08 19.21 +15 26 44.2 19.2   704 – Lincoln Laboratory ETS, New Mexico MPS 217754
2007 09 24.41996 05 08 19.84 +15 26 43.9 19.9   704 – Lincoln Laboratory ETS, New Mexico MPS 217754
2007 09 24.45670 05 08 22.08 +15 26 42.9 20.1   704 – Lincoln Laboratory ETS, New Mexico MPS 217754
2007 10 07.36915 05 19 07.84 +15 24 10.4 19.5   704 – Lincoln Laboratory ETS, New Mexico MPS 218623
2007 10 07.39135 05 19 08.65 +15 24 10.2 19.7   704 – Lincoln Laboratory ETS, New Mexico MPS 218623
2007 10 07.40238 05 19 09.13 +15 24 08.7 19.6   704 – Lincoln Laboratory ETS, New Mexico MPS 218623
2007 10 07.41345 05 19 09.42 +15 24 08.7 19.7   704 – Lincoln Laboratory ETS, New Mexico MPS 218623
2007 10 13.36152 05 22 17.08 +15 21 34.6 19.2   704 – Lincoln Laboratory ETS, New Mexico MPS 220470
2007 10 13.37293 05 22 17.34 +15 21 34.0 19.1   704 – Lincoln Laboratory ETS, New Mexico MPS 220470
2007 10 13.38417 05 22 17.61 +15 21 33.9 19.3   704 – Lincoln Laboratory ETS, New Mexico MPS 220470
2007 10 13.39541 05 22 17.91 +15 21 33.5 19.6   704 – Lincoln Laboratory ETS, New Mexico MPS 220470
2007 10 13.40666 05 22 18.19 +15 21 33.4 19.8   704 – Lincoln Laboratory ETS, New Mexico MPS 220470
2007 11 04.37518 05 22 31.68 +15 15 10.2 18.3   704 – Lincoln Laboratory ETS, New Mexico MPS 226638
2007 11 04.38726 05 22 31.32 +15 15 10.1 18.7   704 – Lincoln Laboratory ETS, New Mexico MPS 226638
2007 11 04.39936 05 22 31.04 +15 15 10.3 19.3   704 – Lincoln Laboratory ETS, New Mexico MPS 226638
